Weather in Male

Maldives     4°10′29″N   73°30′34″E
temp.,
°C
wind,
m/s
gust,
m/s
humid.,
%
clouds,
%
prec.,
mm/h
press.,
hPa
HPBL,
m
11 may, tue
tue1123:00+29ssw3371100 3.0 1009355
02:00+29sse4472100 6.3 1007383
05:00+28s6678100 6.6 1007642
08:00+28ssw667847 1.1 1009598
11:00+29ssw677862 5.8 1009504
14:00+29sw777789 5.8 1007539
17:00+29sw6777100 13.8 1007492
20:00+28wsw8880100 9.7 1009561
12 may, wed
wed1223:00+27sw8986100 20.9 1009466
02:00+28wsw7784100 9.6 1007491
05:00+28wsw8883100 19.1 1007559
08:00+28wsw9984100 8.9 1009746
11:00+27wsw6887100 15.9 1009617
14:00+27w7887100 8.3 1007621
17:00+27w91189100 17.0 1007767
20:00+27w101187100 6.2 1008818
13 may, thu
thu1323:00+27wnw91188100 15.1 1008785
02:00+27wnw101286100 2.9 1006846
05:00+29w11147686 3.7 10061163
08:00+29w111375100 0.9 10071262
11:00+29w111376100 1.5 10071192
14:00+28wsw101283100 5.0 1005996
17:00+28wsw91181100 12.7 1005995
20:00+28sw111383100 5.6 10071043
14 may, fri
fri1423:00+28w121482100 7.7 10071040
02:00+28wsw111386100 4.8 1004992
05:00+28wsw131483100 8.1 10041041
08:00+29w131679100 1.9 10061099
11:00+28w111481100 3.6 10061118
14:00+28sw121685100 1.1 10041158
17:00+28ssw12158399 1.8 10021044
20:00+28wsw131987100 19.4 10041305
15 may, sat
sat1523:00+28wsw172385100 26.6 10051649
02:00+29sw162379100 1.5 10011617
05:00+29wsw172382100 1.7 10021583
08:00+29sw162382100 1.9 10041793
11:00+29sw161980100 8.7 10041650
14:00+29sw152280100 5.3 10031854
17:00+27ssw111390100 19.8 1004937
20:00